EW2821 Weather Reports


Display with metric or nautical units.
time (UTC)temp
F
wind
direction
speed
MPH
gust
MPH
rain 1hr
in
rain 24hr
in
rain mn
in
humidity
%
barometer
mb
20260506213029 53 301 5.0 8.0 0.00 0.54 0.11 64 1013.4
20260506211535 53 291 6.0 11.0 0.00 0.54 0.11 64 1013.5
20260506210030 54 331 5.0 9.0 0.00 0.54 0.11 62 1013.4
20260506204524 54 266 6.0 9.0 0.00 0.60 0.11 59 1013.2
20260506203028 54 278 5.0 13.0 0.00 0.60 0.11 60 1013.3
20260506201532 54 340 8.0 14.0 0.00 0.60 0.11 62 1013.4
20260506200022 54 308 4.0 12.0 0.00 0.60 0.11 61 1013.5
20260506194527 54 318 8.0 12.0 0.00 0.70 0.11 61 1013.4
20260506193020 54 278 5.0 9.0 0.00 0.70 0.11 61 1013.2
20260506191519 54 336 4.0 8.0 0.00 0.70 0.11 67 1013.1
20260506190018 54 309 4.0 9.0 0.00 0.70 0.11 66 1013.3
20260506184515 53 303 2.0 9.0 0.00 0.76 0.11 65 1013.3
20260506183026 53 263 2.0 6.0 0.00 0.76 0.11 64 1013.4
20260506181513 53 293 5.0 9.0 0.00 0.76 0.11 61 1013.4
20260506180014 53 293 5.0 9.0 0.00 0.76 0.11 62 1013.3
20260506174512 53 346 1.0 5.0 0.00 0.79 0.11 65 1013.3
20260506173011 52 293 3.0 8.0 0.00 0.79 0.11 65 1013.8
20260506171510 53 301 3.0 9.0 0.00 0.79 0.11 67 1013.6
20260506170011 53 275 3.0 9.0 0.00 0.79 0.11 66 1013.5
20260506164508 53 332 2.0 12.0 0.00 0.79 0.11 67 1013.1
20260506163008 53 317 5.0 12.0 0.00 0.79 0.11 67 1013.4
20260506161508 53 292 5.0 12.0 0.00 0.79 0.11 67 1013.5
20260506160008 53 293 7.0 10.0 0.00 0.79 0.11 66 1013.4
20260506154503 53 35 5.0 12.0 0.00 0.79 0.11 68 1013.4
20260506153001 52 332 4.0 15.0 0.00 0.79 0.11 71 1013.1
20260506151558 52 308 9.0 12.0 0.00 0.79 0.11 69 1013.1
20260506150155 52 326 5.0 11.0 0.00 0.79 0.11 74 1013.1
20260506144603 51 325 4.0 12.0 0.00 0.79 0.11 74 1012.8
20260506143049 50 323 9.0 12.0 0.00 0.79 0.11 70 1012.7
20260506141545 50 303 7.0 13.0 0.00 0.79 0.11 74 1012.5
20260506140044 49 333 6.0 11.0 0.00 0.79 0.11 76 1012.6
20260506134537 48 326 8.0 11.0 0.00 0.79 0.11 79 1012.6
20260506133033 48 284 5.0 10.0 0.00 0.79 0.11 81 1012.5
20260506131534 47 291 5.0 8.0 0.00 0.79 0.11 84 1012.5
20260506130025 46 295 4.0 7.0 0.00 0.79 0.11 85 1012.4
20260506124523 45 334 2.0 6.0 0.00 0.79 0.11 89 1012.2
20260506123023 44 321 3.0 6.0 0.00 0.79 0.11 91 1012.0
20260506121522 43 295 3.0 7.0 0.00 0.79 0.11 93 1012.0
20260506120013 43 314 2.0 5.0 0.00 0.79 0.11 93 1011.5
20260506114509 43 322 2.0 5.0 0.00 0.79 0.11 93 1010.9
20260506113016 42 308 1.0 5.0 0.00 0.79 0.11 94 1011.0
20260506111503 42 314 2.0 5.0 0.00 0.79 0.11 94 1010.7
20260506110100 42 339 1.0 3.0 0.00 0.79 0.11 94 1010.1
20260506104601 42 340 1.0 2.0 0.00 0.79 0.11 94 1010.1
20260506103119 42 340 1.0 4.0 0.00 0.79 0.11 94 1010.3
20260506101555 42 338 1.0 5.0 0.00 0.79 0.11 94 1010.0
20260506100055 42 356 2.0 6.0 0.00 0.79 0.11 93 1009.6
20260506094603 41 10 3.0 4.0 0.00 0.80 0.11 93 1009.7
20260506093054 41 10 3.0 6.0 0.00 0.80 0.11 93 1009.4
20260506091559 42 353 1.0 5.0 0.00 0.80 0.11 93 1009.3
20260506090056 41 326 2.0 6.0 0.00 0.80 0.11 93 1009.6
20260506084612 41 335 3.0 8.0 0.00 0.96 0.11 93 1009.3
20260506083051 41 5 1.0 5.0 0.00 0.96 0.11 93 1009.1
20260506081550 41 320 2.0 6.0 0.01 0.96 0.11 93 1009.2
20260506073053 42 349 4.0 8.0 0.01 1.18 0.11 91 1009.4
20260506071542 42 346 3.0 11.0 0.00 1.17 0.10 92 1009.1
20260506061553 42 337 3.0 10.0 0.04 1.28 0.10 93 1009.1
20260506044529 44 44 4.0 11.0 0.05 1.23 0.05 94 1008.9
20260506043036 44 62 6.0 10.0 0.06 1.22 0.04 94 1009.4
20260506041526 44 24 4.0 12.0 0.07 1.20 0.02 94 1009.4
20260506040019 45 348 4.0 11.0 0.10 1.18 0.00 95 1009.2
20260506034516 45 81 6.0 13.0 0.11 1.18 1.18 95 1008.1
20260506033018 45 20 4.0 8.0 0.09 1.15 1.15 95 1008.5
20260506031513 45 10 4.0 11.0 0.06 1.12 1.12 95 1009.0
20260506030009 46 360 6.0 12.0 0.04 1.08 1.08 95 1009.1
20260506024524 46 70 5.0 12.0 0.04 1.07 1.07 95 1008.2
20260506023007 46 14 7.0 13.0 0.04 1.06 1.06 95 1008.1
20260506021506 46 321 2.0 6.0 0.07 1.06 1.06 95 1008.6
20260506020006 46 103 2.0 6.0 0.06 1.04 1.04 95 1008.6
20260506014507 46 14 3.0 6.0 0.06 1.03 1.03 95 1008.7
20260506013003 46 20 1.0 7.0 0.08 1.02 1.02 95 1008.5
20260506011502 46 38 2.0 6.0 0.07 0.99 0.99 95 1008.4
20260506010002 46 29 2.0 9.0 0.09 0.98 0.98 95 1008.1
20260506004604 47 26 1.0 9.0 0.11 0.97 0.97 95 1008.1
20260506003100 47 355 3.0 10.0 0.10 0.94 0.94 95 1008.3
20260506001558 47 5 6.0 10.0 0.10 0.93 0.93 95 1008.4
20260506000056 47 360 4.0 12.0 0.07 0.89 0.89 95 1008.4
20260505234606 47 330 9.0 15.0 0.06 0.86 0.86 95 1008.1
20260505233051 48 345 7.0 13.0 0.04 0.84 0.84 95 1008.0
20260505231604 48 352 6.0 14.0 0.04 0.83 0.83 95 1008.2
20260505230052 49 28 5.0 13.0 0.05 0.82 0.82 95 1008.1
20260505224546 49 338 6.0 13.0 0.04 0.80 0.80 95 1008.2
20260505223044 50 355 9.0 20.0 0.04 0.80 0.80 94 1008.3
20260505221540 51 346 11.0 18.0 0.03 0.79 0.79 94 1008.0
20260505220040 54 336 11.0 29.0 0.02 0.77 0.77 92 1007.9
20260505214559 58 229 7.0 11.0 0.02 0.76 0.76 95 1007.4